TITAN 3C TRANSTAGE DEB, 26525

Orbit data source: Space-Track

TITAN 3C TRANSTAGE DEB, 26525 is space debris in HEO originally from a launch on Tue, 21 Dec 1965 UTC launched from the Air Force Eastern Test Range (AFETR). Debris objects in space refer to the collection of defunct objects orbiting the Earth. Examples of debris include non-operational satellites, rocket bodies, and fragments generated from explosions, collisions, or faulty payload assembly.

Loading next visibility...
TITAN 3C TRANSTAGE DEB details
Identifier
26525, 1965-108AL
Orbit
HEO
Last TLE update22 hours ago
Origin
Flag of USUSAF SSD (US)
ManufacturerUnknown
MissionSpacecraft
Bus & MotorUnknown
MassUnknown
Launch date (UTC)
1965-12-21 (59 years ago)
Launch vehicleUnknown
Launch site
Air Force Eastern Test Range (AFETR)
Object type
Payload
Rocket body
Debris
Shape & HBRUnknown
Radar Cross SectionMedium (>0.1 m² and <1 m²)

Expand to show TLE details & history

TLE from 22 hours ago
0 TITAN 3C TRANSTAGE DEB
1 26525U 65108AL  24356.28387236  .00000485  00000-0  49532-2 0  9991
2 26525  26.5110  45.4315 6704103 337.9909  14.2566  2.82619346255344
Epoch: 2024-12-21T06:48Z
Definitive object data (Epoch: 2024-12-21T06:48:46.571Z)
Latitude20.94093°
Longitude-97.31005°
Altitude3,540.642 km
Speed7.844 km/s
True Right ascension06h 20m 53s
True Declination20° 51' 31"
Sunlit
Object was in full shadow at TLE epoch
Visualization TLE readout
Latitude3.28646°
Longitude25.88848°
Altitude26,928.582 km
Speed2.252 km/s
Apparent Right ascension14h 44m 21s
Apparent Declination-3° 16' 15"
Sunlit
Object is in daylight
Visualization observer readout
Local Sidereal Time03:58:02
Azimuth29.223° NE
Elevation-49.738°
Doppler factor1
Orbital elements
Apogee altitude28,926.428 km
Perigee altitude587.829 km
Semi-major axis21,135.265 km
Eccentricity0.6704103
Inclination26.511°
RAAN45.4315°
Arg. of periapsis337.9909°
True anomaly75.24637°
Mean anomaly14.2566°
Eccentric anomaly37.7987°
Mean motion0.70637 °/min
BSTAR0.0049532
Orbital period509.65 mins
Loading maneuver chart data...

TITAN 3C TRANSTAGE DEB Visibility forecast

Observer location: undefined°, undefined

Span
Click to sort rows by Start time (UTC) header in descending order
Start Az.
Max El. time (UTC)
Max El. Az.
Max El.
End time (UTC)
End Az.
425 mins2024-12-22 08:12:32.536Z233.036° WSW2024-12-22 08:29:32.536Z158.448° S41.145°2024-12-22 15:17:32.536Z140.156° SSE
|